MOUNT VERNON WA US WA DOT current weather conditions

sailwx.info

Wind from 080 at 1 knots gusting 2

Air temperature 9.2° C

Last reported at 2019-Nov-13 09:02 UTC.
Time now 2019-Nov-13 09:37 UTC

Location: N 48°27' W 122°26'.
View on Google Maps.

See reports from other nearby stations

  
Tides and Currents Weather Stations Pressure Air Temp Water Temp Dewpoint Dewpoint Depression Visibility Wind Speed Wind Dir Waves Ship Positions
date/time (UTC)wind fromknots sea level pressurealtimeterstation pressurevisibilityair tempwater tempwave heightnotes
2019-Nov-13 09:02 080 1 gusting 2 9.2
2019-Nov-13 08:47 9.2
2019-Nov-13 08:32 185 0 gusting 1 9.2
2019-Nov-13 08:17 120 1 gusting 3 9.2
2019-Nov-13 08:02 120 3 gusting 4 9.3
2019-Nov-13 07:47 115 1 gusting 3 9.4
2019-Nov-13 07:31 9.3
2019-Nov-13 07:17 100 1 gusting 1 9.3
2019-Nov-13 07:03 105 0 gusting 1 9.3
2019-Nov-13 06:47 085 2 gusting 2 9.4
2019-Nov-13 06:31 115 2 gusting 2 9.4
2019-Nov-13 06:17 9.5
2019-Nov-13 06:02 9.6
2019-Nov-13 05:48 9.5
2019-Nov-13 05:32 115 1 gusting 3 9.3
2019-Nov-13 05:17 115 2 gusting 3 9.3
2019-Nov-13 05:02 115 1 gusting 1 9.4
2019-Nov-13 04:46 140 0 gusting 2 9.4
2019-Nov-13 04:32 105 2 gusting 3 9.3
2019-Nov-13 04:17 140 3 gusting 4 9.4
2019-Nov-13 04:02 135 2 gusting 2 9.3
2019-Nov-13 03:46 160 0 gusting 0 9.4
2019-Nov-13 03:32 9.5
2019-Nov-13 03:17 110 1 gusting 1 9.4
2019-Nov-13 03:01 265 0 gusting 1 9.8
2019-Nov-13 02:47 085 0 gusting 1 9.7
2019-Nov-13 02:33 055 1 gusting 2 9.6
2019-Nov-13 02:17 125 0 gusting 2 9.6
2019-Nov-13 02:02 110 1 gusting 2 9.7
2019-Nov-13 01:47 130 1 gusting 3 9.7
2019-Nov-13 01:32 145 2 gusting 3 9.7
2019-Nov-13 01:17 155 3 gusting 4 9.8
2019-Nov-13 01:02 165 2 gusting 4 9.8
2019-Nov-13 00:47 135 3 gusting 4 9.8
2019-Nov-13 00:31 145 3 gusting 4 9.8
2019-Nov-13 00:16 165 4 gusting 6 9.9
2019-Nov-13 00:01 180 4 gusting 5 10.0
2019-Nov-12 23:46 180 4 gusting 5 10.0
2019-Nov-12 23:31 170 4 gusting 5 10.0
2019-Nov-12 23:16 185 4 gusting 6 10.0
2019-Nov-12 23:01 185 5 gusting 8 10.0
2019-Nov-12 22:45 190 7 gusting 9 10.0
2019-Nov-12 22:31 185 7 gusting 9 10.1
2019-Nov-12 22:16 200 7 gusting 10 10.4
2019-Nov-12 22:02 185 6 gusting 8 10.5
2019-Nov-12 21:46 190 6 gusting 10 10.4
2019-Nov-12 21:31 180 8 gusting 10 10.2
2019-Nov-12 21:16 185 7 gusting 9 10.1
2019-Nov-12 21:01 185 7 gusting 9 10.1
2019-Nov-12 20:46 185 7 gusting 8 9.8
2019-Nov-12 20:31 185 7 gusting 8 9.8
2019-Nov-12 20:16 175 6 gusting 9 9.5
2019-Nov-12 20:01 190 6 gusting 9 9.3
2019-Nov-12 19:45 185 7 gusting 10 9.4
2019-Nov-12 19:31 185 7 gusting 10 9.4
2019-Nov-12 19:16 195 5 gusting 7 9.1
2019-Nov-12 19:02 195 3 gusting 5 9.1
2019-Nov-12 18:46 135 1 gusting 1 9.2
2019-Nov-12 18:31 210 1 gusting 2 8.7
2019-Nov-12 18:16 210 2 gusting 3 8.6
2019-Nov-12 18:01 200 2 gusting 3 8.3
2019-Nov-12 17:46 230 1 gusting 4 8.1
2019-Nov-12 17:31 190 1 gusting 3 8.1
2019-Nov-12 17:16 175 3 gusting 3 7.8
2019-Nov-12 17:01 145 2 gusting 3 7.8
2019-Nov-12 16:46 140 0 gusting 3 7.8
2019-Nov-12 16:31 125 1 gusting 3 7.6
2019-Nov-12 16:16 140 3 gusting 3 7.5
2019-Nov-12 16:01 130 1 gusting 3 7.3
2019-Nov-12 15:46 115 2 gusting 3 7.4
2019-Nov-12 15:31 115 1 gusting 2 7.3
2019-Nov-12 15:16 115 1 gusting 1 7.3
2019-Nov-12 15:01 120 0 gusting 2 7.7
2019-Nov-12 14:46 110 2 gusting 4 7.4
2019-Nov-12 14:32 095 2 gusting 3 7.8
2019-Nov-12 14:16 065 1 gusting 2 7.8
2019-Nov-12 14:01 060 1 gusting 4 7.8
2019-Nov-12 13:46 045 2 gusting 3 7.8
2019-Nov-12 13:31 060 0 gusting 1 7.8
2019-Nov-12 13:16 7.9
2019-Nov-12 13:01 040 1 gusting 2 7.8
2019-Nov-12 12:45 095 2 gusting 4 7.9
2019-Nov-12 12:31 085 3 gusting 3 8.1
2019-Nov-12 12:16 075 1 gusting 3 8.2
2019-Nov-12 12:01 035 2 gusting 7 8.5
2019-Nov-12 11:46 325 4 gusting 7 8.8
2019-Nov-12 11:31 275 1 gusting 2 8.6
2019-Nov-12 11:16 050 1 gusting 1 8.6
2019-Nov-12 11:01 100 1 gusting 2 8.7
2019-Nov-12 10:45 270 1 gusting 2 9.1
2019-Nov-12 10:32 350 3 gusting 4 9.3
2019-Nov-12 10:16 330 3 gusting 4 9.3
2019-Nov-12 10:01 020 1 gusting 7 9.5
2019-Nov-12 09:46 005 2 gusting 6 9.6
2019-Nov-12 09:31 330 5 gusting 7 9.8
2019-Nov-12 09:16 040 2 gusting 8 9.8
2019-Nov-12 09:00 005 2 gusting 6 9.9
2019-Nov-12 08:45 340 7 gusting 9 10.1
2019-Nov-12 08:31 350 3 gusting 5 10.1
2019-Nov-12 08:15 010 3 gusting 9 10.1
2019-Nov-12 08:01 350 8 gusting 12 10.0
2019-Nov-12 07:46 010 4 gusting 10 9.9
2019-Nov-12 07:31 9.8
2019-Nov-12 07:17 340 5 gusting 10 9.9
2019-Nov-12 07:01 9.7
2019-Nov-12 06:46 005 5 gusting 11 9.6
2019-Nov-12 06:31 005 4 gusting 9 9.7
2019-Nov-12 06:16 9.4
2019-Nov-12 06:01 355 5 gusting 8 9.2
2019-Nov-12 05:47 305 2 gusting 3 8.5
2019-Nov-12 05:31 255 1 gusting 1 8.2
2019-Nov-12 05:16 160 1 gusting 1 8.2
2019-Nov-12 05:01 030 0 gusting 1 8.3
2019-Nov-12 04:46 130 1 gusting 2 8.3
2019-Nov-12 04:32 010 2 gusting 2 8.5
2019-Nov-12 04:16 8.1
2019-Nov-12 04:01 8.3
2019-Nov-12 03:46 050 1 gusting 2 8.5
2019-Nov-12 03:31 9.3
2019-Nov-12 03:16 015 1 gusting 4 9.3
2019-Nov-12 03:01 315 1 gusting 3 9.3
2019-Nov-12 02:46 045 0 gusting 2 9.3
2019-Nov-12 02:31 9.8
2019-Nov-12 02:15 335 1 gusting 2 10.0
2019-Nov-12 02:01 9.8
2019-Nov-12 01:46 050 1 gusting 3 9.9
2019-Nov-12 01:30 050 1 gusting 2 10.1
2019-Nov-12 01:16 10.2
2019-Nov-12 01:00 10.2
2019-Nov-12 00:46 335 3 gusting 4 10.5
2019-Nov-12 00:31 350 1 gusting 4 10.6
2019-Nov-12 00:16 330 0 gusting 1 11.0
2019-Nov-12 00:01 030 0 gusting 2 11.1
2019-Nov-11 23:46 005 2 gusting 3 11.2
2019-Nov-11 23:31 005 3 gusting 5 11.1
2019-Nov-11 23:16 005 3 gusting 5 11.1
2019-Nov-11 23:00 030 2 gusting 4 11.2
2019-Nov-11 22:46 015 1 gusting 5 11.1
2019-Nov-11 22:31 010 2 gusting 4 11.5
2019-Nov-11 22:15 330 5 gusting 8 11.2
2019-Nov-11 22:01 300 5 gusting 6 11.2
2019-Nov-11 21:45 13.1
2019-Nov-11 21:31 145 1 gusting 4 13.0
2019-Nov-11 21:16 125 1 gusting 4 13.1
2019-Nov-11 21:01 075 0 gusting 3 12.6
2019-Nov-11 20:46 005 1 gusting 3 12.7
2019-Nov-11 20:31 040 1 gusting 3 12.0
2019-Nov-11 20:16 11.7
2019-Nov-11 20:01 005 2 gusting 5 11.4
2019-Nov-11 19:46 035 1 gusting 4 11.4
2019-Nov-11 19:32 025 1 gusting 3 11.2
2019-Nov-11 19:16 010 2 gusting 6 10.8
2019-Nov-11 19:01 040 2 gusting 5 11.0
2019-Nov-11 18:45 045 2 gusting 6 11.0
2019-Nov-11 18:30 050 1 gusting 4 10.7
2019-Nov-11 18:15 030 2 gusting 5 10.6
2019-Nov-11 18:02 055 3 gusting 10 10.7
2019-Nov-11 17:47 080 4 gusting 7 10.4
2019-Nov-11 17:30 085 5 gusting 10 9.6
2019-Nov-11 17:16 085 4 gusting 8 9.3
2019-Nov-11 17:01 090 5 gusting 8 9.0
2019-Nov-11 16:46 095 4 gusting 7 8.4
2019-Nov-11 16:31 105 3 gusting 4 8.0
2019-Nov-11 16:17 100 1 gusting 4 7.7
2019-Nov-11 16:00 090 4 gusting 7 7.9
2019-Nov-11 15:46 080 3 gusting 5 7.9
2019-Nov-11 15:31 080 4 gusting 6 7.5
2019-Nov-11 15:16 080 4 gusting 5 7.2
2019-Nov-11 15:01 095 2 gusting 4 6.8
2019-Nov-11 14:47 090 3 gusting 6 6.7
2019-Nov-11 14:31 120 1 gusting 5 6.2
2019-Nov-11 14:16 115 4 gusting 8 6.7
2019-Nov-11 14:01 115 4 gusting 5 6.0
2019-Nov-11 13:47 115 1 gusting 2 5.1
2019-Nov-11 13:31 5.7
2019-Nov-11 13:16 240 0 gusting 2 5.7
2019-Nov-11 13:02 220 1 gusting 1 5.7
2019-Nov-11 12:46 095 1 gusting 4 6.3
2019-Nov-11 12:31 085 3 gusting 5 7.8
2019-Nov-11 12:16 080 4 gusting 5 7.7
2019-Nov-11 12:01 075 2 gusting 4 7.9
2019-Nov-11 11:46 070 3 gusting 4 8.0
2019-Nov-11 11:31 055 2 gusting 6 8.0
2019-Nov-11 11:16 045 2 gusting 7 8.0
2019-Nov-11 11:01 035 1 gusting 3 8.1
2019-Nov-11 10:46 060 3 gusting 5 8.3
2019-Nov-11 10:31 065 3 gusting 7 8.5
2019-Nov-11 10:15 080 4 gusting 8 8.4
2019-Nov-11 10:01 075 5 gusting 9 8.2
2019-Nov-11 09:46 065 4 gusting 8 8.1
2019-Nov-11 09:31 075 6 gusting 8 7.8
2019-Nov-11 09:16 060 5 gusting 9 7.9
2019-Nov-11 09:01 085 4 gusting 10 7.9